YUNHAI 2-1E

导读

YUNHAI 2-1E(云海二号卫星)是中国航天科技集团八院研制的云海系列卫星之一,于北京时间2018年12月29日在酒泉卫星发射中心,由长征二号丁运载火箭(搭配远征三号上面级)发射升空。该卫星主要承担大气环境要素探测、空间环境监测、防灾减灾与科学试验任务,是我国民用航天环境监测体系的重要组成,助力提升我国空间环境感知与灾害应对能力。

Basic Information
目录编号:
43913
目录名称:
YUNHAI 2-1E
国际标识:
2018-112E
轨道中心:
EARTH
卫星名称:
YUNHAI 2-1E
卫星全名:
--
卫星状态:
在轨 (已飞行2727 天)
发射日期:
2018-12-29 UTC
国别 :
中国 (CN)
星等 :
--
Orbit Information
数据来源 国际轨道数据 AOE轨道数据
星历时间 2026-06-17T11:38:20+0800
11小时前
查看轨道信息
2026-06-17T02:00:00+0800
20小时前
查看轨道信息
半长轴 7173.178km 7173.166km
偏心率 0.0005137 0.000499
轨道倾角 50.006° 50.006°
近地点辐角 1.530° 358.883°
升交点赤经 166.894° 168.599°
平近点角 358.563° 93.679°
近地点 791.356km 791.449km
远地点 798.726km 798.609km
周期 100.769分钟 100.769分钟
每日圈数 14.290104 14.290141
Detailed Information
使用方式:
暂无
2D Orbit Map
3D Orbit Map
Orbit Altitude Analysis Chart
Orbit Inclination Analysis Chart
Orbit Comprehensive Analysis Chart
View Comprehensive Chart